TimeCDT,TemperatureF,Dew PointF,Humidity,Sea Level PressureIn,VisibilityMPH,Wind Direction,Wind SpeedMPH,Gust SpeedMPH,PrecipitationIn,Events,Conditions,WindDirDegrees,DateUTC
12:16 AM,30.2,19.4,64,30.15,10.0,West,4.6,-,N/A,,Clear,270,2012-10-07 05:16:00
12:35 AM,30.2,21.2,69,30.15,10.0,West,4.6,-,N/A,,Clear,280,2012-10-07 05:35:00
12:56 AM,30.2,21.2,69,30.14,10.0,West,4.6,-,N/A,,Clear,270,2012-10-07 05:56:00
1:16 AM,30.2,21.2,69,30.14,10.0,West,3.5,-,N/A,,Clear,260,2012-10-07 06:16:00
1:35 AM,28.4,21.2,74,30.13,10.0,Calm,Calm,-,N/A,,Clear,0,2012-10-07 06:35:00
1:56 AM,28.4,19.4,69,30.13,10.0,WSW,3.5,-,N/A,,Clear,240,2012-10-07 06:56:00
2:16 AM,28.4,21.2,74,30.12,10.0,SW,3.5,-,N/A,,Clear,220,2012-10-07 07:16:00
2:36 AM,28.4,21.2,74,30.12,10.0,SW,3.5,-,N/A,,Clear,220,2012-10-07 07:36:00
2:56 AM,26.6,19.4,74,30.11,10.0,SW,3.5,-,N/A,,Clear,220,2012-10-07 07:56:00
3:16 AM,26.6,21.2,80,30.11,10.0,SW,3.5,-,N/A,,Clear,230,2012-10-07 08:16:00
3:36 AM,28.4,21.2,74,30.10,10.0,SW,4.6,-,N/A,,Clear,230,2012-10-07 08:36:00
3:56 AM,28.4,21.2,74,30.10,10.0,SW,4.6,-,N/A,,Clear,230,2012-10-07 08:56:00
4:16 AM,28.4,21.2,74,30.09,10.0,WSW,6.9,-,N/A,,Clear,240,2012-10-07 09:16:00
4:36 AM,30.2,21.2,69,30.09,10.0,WSW,6.9,-,N/A,,Clear,240,2012-10-07 09:36:00
4:56 AM,30.2,21.2,69,30.08,10.0,WSW,6.9,-,N/A,,Clear,240,2012-10-07 09:56:00
5:15 AM,30.2,21.2,69,30.08,10.0,WSW,6.9,-,N/A,,Clear,240,2012-10-07 10:15:00
5:36 AM,30.2,21.2,69,30.07,10.0,WSW,6.9,-,N/A,,Clear,240,2012-10-07 10:36:00
5:55 AM,30.2,21.2,69,30.07,10.0,WSW,8.1,-,N/A,,Clear,240,2012-10-07 10:55:00
6:16 AM,30.2,21.2,69,30.07,10.0,WSW,5.8,-,N/A,,Clear,240,2012-10-07 11:16:00
6:36 AM,30.2,21.2,69,30.06,10.0,SW,6.9,-,N/A,,Clear,230,2012-10-07 11:36:00
6:55 AM,28.4,21.2,74,30.06,10.0,SW,4.6,-,N/A,,Clear,220,2012-10-07 11:55:00
7:16 AM,26.6,21.2,80,30.05,10.0,SW,5.8,-,N/A,,Clear,220,2012-10-07 12:16:00
7:36 AM,28.4,21.2,74,30.05,10.0,SW,5.8,-,N/A,,Clear,220,2012-10-07 12:36:00
7:56 AM,28.4,21.2,74,30.05,10.0,SW,5.8,-,N/A,,Clear,220,2012-10-07 12:56:00
8:16 AM,30.2,23.0,75,30.04,10.0,SW,6.9,-,N/A,,Clear,220,2012-10-07 13:16:00
8:36 AM,-9999,24.8,N/A,3.00,10.0,SW,8.1,-,N/A,,Clear,220,2012-10-07 13:36:00
8:56 AM,33.8,24.8,70,30.03,10.0,SW,9.2,-,N/A,,Clear,220,2012-10-07 13:56:00
9:16 AM,35.6,24.8,65,30.03,10.0,SW,10.4,-,N/A,,Clear,230,2012-10-07 14:16:00
9:35 AM,37.4,24.8,60,30.03,10.0,SW,9.2,-,N/A,,Clear,220,2012-10-07 14:35:00
9:55 AM,39.2,23.0,52,30.02,10.0,SW,12.7,19.6,N/A,,Clear,230,2012-10-07 14:55:00
10:14 AM,41.0,23.0,49,30.01,10.0,SSW,10.4,-,N/A,,Clear,210,2012-10-07 15:14:00
10:28 AM,42.8,21.2,42,30.01,10.0,SSW,10.4,19.6,N/A,,Clear,210,2012-10-07 15:28:00
10:56 AM,42.8,19.4,39,30.01,10.0,SW,12.7,21.9,N/A,,Clear,230,2012-10-07 15:56:00
11:16 AM,44.6,17.6,34,30.00,10.0,WSW,12.7,21.9,N/A,,Clear,240,2012-10-07 16:16:00
11:36 AM,46.4,15.8,29,30.00,10.0,WSW,16.1,23.0,N/A,,Clear,240,2012-10-07 16:36:00
11:56 AM,46.4,15.8,29,29.99,10.0,WSW,15.0,21.9,N/A,,Clear,250,2012-10-07 16:56:00
12:15 PM,46.4,12.2,25,29.99,10.0,WSW,15.0,20.7,N/A,,Clear,240,2012-10-07 17:15:00
12:36 PM,48.2,10.4,22,29.99,10.0,WSW,15.0,24.2,N/A,,Clear,250,2012-10-07 17:36:00
12:56 PM,46.4,10.4,23,29.98,10.0,WSW,13.8,26.5,N/A,,Clear,250,2012-10-07 17:56:00
1:16 PM,46.4,8.6,22,29.97,10.0,SW,15.0,26.5,N/A,,Clear,230,2012-10-07 18:16:00
1:36 PM,50.0,10.4,20,29.96,10.0,WSW,15.0,26.5,N/A,,Clear,240,2012-10-07 18:36:00
1:56 PM,48.2,8.6,20,29.95,10.0,WSW,21.9,27.6,N/A,,Clear,240,2012-10-07 18:56:00
2:16 PM,48.2,8.6,20,29.94,10.0,SW,15.0,24.2,N/A,,Clear,230,2012-10-07 19:16:00
2:36 PM,48.2,6.8,19,29.94,10.0,WSW,12.7,25.3,N/A,,Scattered Clouds,240,2012-10-07 19:36:00
2:55 PM,48.2,8.6,20,29.93,10.0,SW,15.0,23.0,N/A,,Scattered Clouds,230,2012-10-07 19:55:00
3:16 PM,48.2,8.6,20,29.92,10.0,SSW,16.1,23.0,N/A,,Scattered Clouds,210,2012-10-07 20:16:00
3:35 PM,48.2,10.4,22,29.92,10.0,SW,13.8,19.6,N/A,,Scattered Clouds,230,2012-10-07 20:35:00
3:56 PM,50.0,8.6,19,29.92,10.0,WSW,13.8,19.6,N/A,,Clear,250,2012-10-07 20:56:00
4:16 PM,48.2,8.6,20,29.91,10.0,SW,12.7,18.4,N/A,,Mostly Cloudy,220,2012-10-07 21:16:00
4:32 PM,48.2,8.6,20,29.90,10.0,SW,11.5,-,N/A,,Scattered Clouds,220,2012-10-07 21:32:00
4:56 PM,48.2,10.4,22,29.90,10.0,SSW,11.5,17.3,N/A,,Clear,200,2012-10-07 21:56:00
5:14 PM,48.2,8.6,20,29.90,10.0,North,-9999.0,-,N/A,,Clear,0,2012-10-07 22:14:00
5:31 PM,48.2,10.4,22,29.89,10.0,SSW,6.9,10.4,N/A,,Clear,200,2012-10-07 22:31:00
5:56 PM,48.2,8.6,20,29.89,10.0,SW,11.5,-,N/A,,Clear,220,2012-10-07 22:56:00
6:16 PM,46.4,8.6,22,29.89,10.0,SSW,9.2,-,N/A,,Clear,210,2012-10-07 23:16:00
6:36 PM,44.6,10.4,25,29.89,10.0,South,4.6,-,N/A,,Clear,190,2012-10-07 23:36:00
6:56 PM,44.6,10.4,25,29.89,10.0,South,3.5,-,N/A,,Clear,170,2012-10-07 23:56:00
7:16 PM,42.8,12.2,29,29.88,10.0,SSE,3.5,-,N/A,,Clear,160,2012-10-08 00:16:00
7:36 PM,42.8,12.2,29,29.89,10.0,Calm,Calm,-,N/A,,Clear,0,2012-10-08 00:36:00
7:56 PM,41.0,12.2,31,29.88,10.0,South,3.5,-,N/A,,Clear,170,2012-10-08 00:56:00
8:10 PM,41.0,12.2,31,29.88,10.0,Calm,Calm,-,N/A,,Clear,0,2012-10-08 01:10:00
8:36 PM,39.2,14.0,36,29.87,10.0,Calm,Calm,-,N/A,,Clear,0,2012-10-08 01:36:00
8:56 PM,39.2,14.0,36,29.87,10.0,Calm,Calm,-,N/A,,Clear,0,2012-10-08 01:56:00
9:15 PM,37.4,14.0,38,29.87,10.0,Calm,Calm,-,N/A,,Clear,0,2012-10-08 02:15:00
9:36 PM,37.4,14.0,38,29.87,10.0,Calm,Calm,-,N/A,,Clear,0,2012-10-08 02:36:00
9:56 PM,37.4,15.8,41,29.86,10.0,Calm,Calm,-,N/A,,Clear,0,2012-10-08 02:56:00
10:16 PM,35.6,15.8,44,29.86,10.0,South,4.6,-,N/A,,Clear,190,2012-10-08 03:16:00
10:36 PM,35.6,15.8,44,29.85,10.0,South,5.8,-,N/A,,Clear,190,2012-10-08 03:36:00
10:56 PM,35.6,15.8,44,29.85,10.0,South,5.8,-,N/A,,Clear,190,2012-10-08 03:56:00
11:16 PM,35.6,15.8,44,29.84,10.0,South,4.6,-,N/A,,Clear,180,2012-10-08 04:16:00
11:36 PM,35.6,15.8,44,29.83,10.0,South,3.5,-,N/A,,Clear,180,2012-10-08 04:36:00
11:55 PM,33.8,15.8,48,29.82,10.0,South,4.6,-,N/A,,Clear,190,2012-10-08 04:55:00